Weather History for Hill City, KS

Change the Weather History Date:

Monday, May 5, 2014

  Actual Average Record
Temperature  
Mean Temperature 63 °F 59 °F  
Max Temperature 78 °F 72 °F 99 °F (2004)
Min Temperature 48 °F 46 °F 33 °F (1950)
Degree Days  
Heating Degree Days 2    
Growing Degree Days 12 (Base 50)    
Moisture  
Dew Point 46 °F    
Average Humidity 59    
Maximum Humidity 80    
Minimum Humidity 34    
Precipitation  
Precipitation 0.00 in 0.11 in 0.61 in (1998)
Month to date precipitation T 0.56  
Year to date precipitation 4.03 5.28  
Sea Level Pressure  
Sea Level Pressure 29.74 in    
Wind  
Wind Speed 10 mph (NE)    
Max Wind Speed 17 mph    
Max Gust Speed 21 mph    
Visibility 10 miles    
Events      
T = Trace of Precipitation, MM = Missing Value Source: NWS Daily Summary

Daily Weather History Graph

Daily Weather History Graph

Search for Another Location

Airport:

Trip Planner

Search our weather history database for the weather conditions in past years. The results will help you decide how hot, cold, wet, or windy it might be!

Date:

Astronomy

May. 05, 2014 Rise Set
Actual Time 6:35 AM CDT 8:36 PM CDT
Civil Twilight 6:06 AM CDT 9:06 PM CDT
Nautical Twilight 5:30 AM CDT 9:42 PM CDT
Astronomical Twilight 4:51 AM CDT 10:21 PM CDT
Moon 11:56 AM CDT (5/5) 1:22 AM CDT (5/5)
Length of Visible Light 14h 59m
Length of Day
14h 00m
Waxing Crescent, 37% of the Moon is Illuminated
May 5
Waxing Crescent
May 6
First Quarter
May 14
Full
May 21
Last Quarter
May 28
New

Hourly Weather History & Observations

Time (CDT) Temp. Dew Point Humidity Pressure Visibility Wind Dir Wind Speed Gust Speed Precip Events Conditions
12:53 AM 55.0 °F 46.9 °F 74% 29.71 in 10.0 mi ESE 4.6 mph - N/A   Clear
1:53 AM 52.0 °F 46.0 °F 80% 29.69 in 10.0 mi NNE 4.6 mph - N/A   Clear
2:53 AM 52.0 °F 46.0 °F 80% 29.70 in 10.0 mi North 15.0 mph - N/A   Clear
3:53 AM 52.0 °F 46.0 °F 80% 29.71 in 10.0 mi North 12.7 mph - N/A   Clear
4:53 AM 51.1 °F 44.1 °F 77% 29.73 in 10.0 mi North 17.3 mph - N/A   Clear
5:53 AM 50.0 °F 43.0 °F 77% 29.73 in 10.0 mi North 15.0 mph - N/A   Clear
6:53 AM 48.0 °F 42.1 °F 80% 29.76 in 10.0 mi North 9.2 mph - N/A   Clear
7:53 AM 51.1 °F 43.0 °F 74% 29.78 in 10.0 mi North 9.2 mph - N/A   Clear
8:53 AM 55.9 °F 43.0 °F 62% 29.80 in 10.0 mi NE 10.4 mph - N/A   Clear
9:53 AM 60.1 °F 45.0 °F 57% 29.80 in 10.0 mi NNE 8.1 mph - N/A   Clear
10:53 AM 66.9 °F 46.9 °F 49% 29.81 in 10.0 mi North 15.0 mph - N/A   Clear
11:53 AM 72.0 °F 48.0 °F 43% 29.80 in 10.0 mi NNE 17.3 mph - N/A   Clear
1:53 PM 75.0 °F 46.9 °F 37% 29.79 in 10.0 mi ENE 15.0 mph - N/A   Clear
2:53 PM 75.9 °F 46.9 °F 36% 29.78 in 10.0 mi East 8.1 mph - N/A   Clear
3:53 PM 75.9 °F 46.0 °F 35% 29.75 in 10.0 mi NE 9.2 mph - N/A   Clear
4:53 PM 77.0 °F 46.9 °F 34% 29.73 in 10.0 mi NE 10.4 mph 20.7 mph N/A   Clear
5:53 PM 77.0 °F 48.0 °F 36% 29.72 in 10.0 mi NE 10.4 mph - N/A   Clear
6:53 PM 75.0 °F 46.9 °F 37% 29.72 in 10.0 mi ENE 11.5 mph - N/A   Clear
7:53 PM 71.1 °F 48.0 °F 44% 29.72 in 10.0 mi ENE 8.1 mph - N/A   Clear
8:53 PM 62.1 °F 48.0 °F 60% 29.72 in 10.0 mi East 5.8 mph - N/A   Clear
11:53 PM 53.1 °F 46.0 °F 77% 29.69 in 10.0 mi East 4.6 mph - N/A   Clear